Вернуться в каталог

LEMUR 2 STAR-FOX

АктивенНаукаSSO
NORAD 62696·PAYLOAD·🇺🇸 United States

Запущен Jan 14, 2025 с Vandenberg Space Force Base

Loading…

Ближайшие Пролёты (ближайшие 24 часа)

TLE

СвежийSource: Space-Track

Эпоха: Sep 14, 2026, 04:02 UTC

1 62696U 25009CR  26257.16813155  .00003711  00000-0  27645-3 0  9996
2 62696  97.6896 338.1581 0002833 141.2245 218.9185 15.03528940 90921

Отслеживайте LEMUR 2 STAR-FOX в реальном времени с AllMySat

Download on the App Store